Total_Precipitation_Accumulation
0.96 0.99 1.04 1.09 1.13 1.12 1.17 1.26 1.40 1.42 1.26 1.05 0.95 0.98 1.04 1.08 1.23 1.07 1.02 1.02 0.91 0.85 0.84 0.88 0.89 0.92 0.97 1.02 1.06 1.10 1.12 1.16 1.20 1.30 1.43 1.55 1.65 1.73
0.82 0.82 0.85 0.90 1.06 1.15 1.21 1.28 1.37 1.45 1.42 1.15 1.00 1.00 1.05 1.07 1.24 1.05 1.02 1.10 0.93 0.80 0.76 0.87 0.93 0.92 0.93 0.92 0.91 0.93 0.96 1.00 1.03 1.09 1.20 1.30 1.42 1.56
0.67 0.68 0.74 0.80 0.89 0.96 1.07 1.19 1.34 1.47 1.53 1.31 1.09 1.02 1.05 1.10 1.13 1.01 0.93 0.88 0.83 0.81 0.69 0.76 0.99 1.16 1.05 0.94 0.88 0.86 0.87 0.91 0.94 0.99 1.08 1.17 1.24 1.34
0.59 0.61 0.60 0.62 0.72 0.79 0.88 0.99 1.11 1.22 1.34 1.32 1.13 1.04 1.03 1.11 1.16 1.13 0.97 0.82 0.76 0.84 0.75 0.69 0.84 1.22 1.30 1.06 0.98 0.90 0.82 0.81 0.82 0.88 0.96 1.03 1.07 1.16
0.48 0.54 0.57 0.61 0.69 0.75 0.83 0.88 0.95 1.01 1.16 1.22 1.13 1.06 1.06 1.11 1.21 1.16 0.97 0.90 0.68 0.66 0.68 0.72 0.84 1.36 1.70 1.47 1.19 1.08 0.92 0.82 0.75 0.78 0.85 0.89 0.90 0.92
0.38 0.41 0.46 0.54 0.62 0.72 0.78 0.85 0.93 1.02 1.12 1.20 1.20 1.17 1.17 1.16 1.21 1.25 1.06 0.91 0.72 0.52 0.60 0.68 0.86 1.33 1.89 2.05 1.67 1.41 1.19 1.00 0.87 0.79 0.77 0.76 0.71 0.66
0.37 0.37 0.37 0.42 0.52 0.57 0.64 0.77 0.93 1.07 1.11 1.17 1.20 1.22 1.22 1.27 1.21 1.13 1.06 0.91 0.74 0.59 0.61 0.64 0.88 1.54 2.12 2.42 2.25 1.72 1.31 1.09 0.93 0.82 0.77 0.71 0.64 0.57
0.46 0.43 0.34 0.33 0.36 0.41 0.49 0.60 0.74 0.93 1.08 1.16 1.19 1.17 1.16 1.19 1.17 1.13 1.12 1.10 0.96 0.67 0.63 0.71 1.01 1.83 2.42 2.67 2.57 1.88 1.31 1.09 0.97 0.88 0.82 0.75 0.66 0.58
0.49 0.48 0.38 0.31 0.38 0.45 0.46 0.49 0.57 0.72 0.94 1.13 1.22 1.13 1.17 1.23 1.27 1.28 1.19 1.18 1.12 0.80 0.75 0.91 1.22 1.82 2.30 2.71 2.64 1.98 1.47 1.19 1.07 0.98 0.90 0.82 0.70 0.60
0.40 0.42 0.47 0.51 0.42 0.41 0.47 0.62 0.77 0.84 0.86 0.90 1.08 1.12 1.15 1.15 1.11 1.13 1.13 1.16 1.06 0.83 0.81 1.08 1.32 1.73 2.09 2.53 2.52 1.94 1.50 1.27 1.15 1.03 0.90 0.79 0.69 0.61
0.33 0.32 0.37 0.45 0.42 0.46 0.61 0.85 1.04 1.19 1.03 0.98 1.04 1.17 1.20 1.08 0.91 0.95 1.17 1.26 1.12 0.88 0.81 1.03 1.28 1.48 1.77 2.09 2.09 1.81 1.49 1.30 1.14 0.99 0.86 0.74 0.66 0.63
0.40 0.39 0.42 0.44 0.45 0.58 0.73 1.00 1.23 1.34 1.16 1.08 1.19 1.32 1.26 1.16 1.07 1.11 1.30 1.28 1.15 1.08 0.89 0.93 1.10 1.21 1.59 1.74 1.60 1.45 1.40 1.37 1.23 1.09 0.94 0.75 0.60 0.55
0.45 0.50 0.52 0.53 0.51 0.63 0.81 1.00 1.21 1.27 1.22 1.19 1.20 1.21 1.20 1.20 1.10 1.09 1.12 1.09 1.09 1.08 0.86 0.92 1.11 1.19 1.40 1.56 1.48 1.39 1.27 1.25 1.24 1.28 1.22 0.97 0.69 0.56
0.55 0.58 0.57 0.56 0.59 0.74 0.88 1.09 1.29 1.40 1.29 1.15 1.04 0.99 0.98 1.01 0.98 0.86 0.81 0.79 0.84 0.89 0.81 0.88 1.14 1.29 1.26 1.25 1.39 1.35 1.29 1.27 1.23 1.27 1.31 1.17 0.95 0.82
0.48 0.64 0.63 0.58 0.74 1.03 1.20 1.32 1.47 1.53 1.33 1.06 0.94 0.87 0.80 0.75 0.73 0.74 0.70 0.65 0.63 0.63 0.57 0.66 0.92 1.08 1.11 1.12 1.22 1.21 1.32 1.50 1.41 1.37 1.30 1.19 1.07 0.94
0.40 0.59 0.72 0.76 0.92 1.20 1.42 1.52 1.57 1.47 1.23 1.01 0.86 0.79 0.71 0.67 0.68 0.64 0.63 0.61 0.64 0.68 0.59 0.57 0.69 0.86 1.00 1.00 1.05 1.14 1.23 1.63 1.65 1.42 1.31 1.29 1.19 1.06
0.36 0.53 0.73 0.83 1.03 1.24 1.38 1.39 1.33 1.23 1.14 0.96 0.81 0.75 0.74 0.71 0.68 0.61 0.59 0.54 0.57 0.60 0.61 0.59 0.62 0.67 0.74 0.82 0.96 1.08 1.20 1.42 1.49 1.27 1.13 1.25 1.29 1.14
0.39 0.61 0.79 0.89 1.04 1.16 1.24 1.20 1.11 1.02 0.94 0.86 0.79 0.72 0.69 0.66 0.65 0.58 0.51 0.49 0.53 0.52 0.50 0.47 0.46 0.47 0.54 0.70 0.92 0.99 1.03 1.19 1.21 1.05 0.87 0.97 1.21 1.19
0.42 0.64 0.81 0.93 1.03 1.06 1.06 1.01 0.96 0.90 0.80 0.74 0.70 0.66 0.60 0.56 0.53 0.48 0.44 0.45 0.44 0.41 0.38 0.34 0.29 0.27 0.38 0.74 0.98 1.03 0.95 0.96 0.94 0.88 0.81 0.81 1.03 1.15
0.49 0.64 0.76 0.82 0.88 0.91 0.89 0.88 0.84 0.77 0.69 0.65 0.65 0.62 0.53 0.47 0.43 0.41 0.39 0.37 0.36 0.32 0.28 0.25 0.24 0.24 0.32 0.55 0.93 1.10 0.95 0.73 0.65 0.69 0.71 0.76 0.89 0.95
0.51 0.61 0.67 0.70 0.72 0.75 0.73 0.70 0.69 0.66 0.59 0.55 0.55 0.56 0.53 0.46 0.39 0.32 0.28 0.23 0.25 0.26 0.27 0.30 0.29 0.23 0.21 0.27 0.54 0.79 0.82 0.76 0.59 0.52 0.52 0.56 0.59 0.54
0.48 0.55 0.57 0.55 0.55 0.56 0.54 0.49 0.50 0.50 0.48 0.47 0.47 0.47 0.46 0.40 0.33 0.27 0.23 0.21 0.20 0.20 0.21 0.23 0.20 0.16 0.17 0.24 0.39 0.56 0.60 0.54 0.48 0.45 0.45 0.41 0.36 0.44
0.40 0.43 0.46 0.46 0.42 0.40 0.40 0.39 0.40 0.42 0.42 0.42 0.41 0.40 0.38 0.33 0.26 0.21 0.18 0.16 0.14 0.13 0.14 0.17 0.17 0.14 0.14 0.17 0.23 0.31 0.33 0.31 0.28 0.31 0.43 0.49 0.45 0.52